This is the latest recevied weather packets stored in our database for station/object N8RJH-13. If no packets are shown the sender has not sent any weather packets the latest 10 day(s).
| Time | Temp. | Humidity | Pressure | Rain* | Wind** | Luminosity | Snow |
|---|---|---|---|---|---|---|---|
| 1787674297 | 24.44° C | 61% | 1022.3 hPa | - | - | - | - |
| 1787673667 | 23.89° C | 62% | 1022.3 hPa | - | - | - | - |
| 1787673056 | 23.89° C | 63% | 1022.4 hPa | - | - | - | - |
| 1787672446 | 23.33° C | 65% | 1022.6 hPa | - | - | - | - |
| 1787671817 | 23.33° C | 64% | 1022.7 hPa | - | - | - | - |
| 1787671196 | 22.78° C | 67% | 1022.5 hPa | - | - | - | - |
| 1787670576 | 22.78° C | 67% | 1022.9 hPa | - | - | - | - |
| 1787669964 | 22.78° C | 68% | 1022.8 hPa | - | - | - | - |
| 1787669336 | 22.22° C | 68% | 1022.8 hPa | - | - | - | - |
| 1787668706 | 22.22° C | 69% | 1022.9 hPa | - | - | - | - |
| 1787668086 | 21.67° C | 70% | 1022.8 hPa | - | - | - | - |
| 1787667446 | 21.67° C | 71% | 1022.6 hPa | - | - | - | - |
| 1787666826 | 21.11° C | 72% | 1022.7 hPa | - | - | - | - |
| 1787665586 | 20.56° C | 75% | 1022.7 hPa | - | - | - | - |
| 1787664956 | 20.56° C | 76% | 1022.6 hPa | - | - | - | - |
| 1787664326 | 20° C | 78% | 1022.4 hPa | - | - | - | - |
| 1787663707 | 19.44° C | 78% | 1022.3 hPa | - | - | - | - |
| 1787663097 | 19.44° C | 81% | 1022.2 hPa | - | - | - | - |
| 1787662466 | 18.89° C | 82% | 1022.2 hPa | - | - | - | - |
| 1787661847 | 18.33° C | 84% | 1022 hPa | - | - | - | - |
| 1787661218 | 17.78° C | 86% | 1021.8 hPa | - | - | - | - |
| 1787660607 | 17.22° C | 88% | 1021.6 hPa | - | - | - | - |
| 1787659976 | 16.67° C | 89% | 1021.6 hPa | - | - | - | - |
| 1787659358 | 16.11° C | 90% | 1021.6 hPa | - | - | - | - |
| 1787658716 | 15.56° C | 90% | 1021.7 hPa | - | - | - | - |
* Rain since midnight (hover to see other rain measurements)
** Current wind speed in m/s (hover to see current wind gust speed)